Regional Weather Roundup
Issued by NWS

Home | Current Version | Previous Version | Text Only | Print | Product List | Glossary Off
Versions: 1 2 3 4 5 6 7 8 9 10 11 12 13 14 15 16 17 18 19 20 21 22 23 24 25 26 27 28 29 30 31 32 33 34 35 36 37 38 39 40 41 42 43 44 45 46 47 48 49 50

107
ASUS43 KOAX 222310
RWRNE

WEATHER ROUNDUP FOR NEBRASKA
NATIONAL WEATHER SERVICE OMAHA NE
500 PM CST WED NOV 22 2017

NOTES: SATELLITE DATA IS BEING USED TO AUGMENT CLOUD COVER ABOVE
       12000 FEET.
       "FAIR" INDICATES FEW OR NO CLOUDS BELOW 12,000 FEET WITH NO
       SIGNIFICANT WEATHER AND/OR OBSTRUCTIONS TO VISIBILITY.


NEZ001>004-019>022-054>056-230000-
NEBRASKA PANHANDLE

CITY           SKY/WX    TMP DP  RH WIND       PRES   REMARKS
SCOTTSBLUFF    CLEAR     63  39  41 W12       30.13R
ALLIANCE       CLEAR     59  36  42 NW6       30.09R
CHADRON        CLOUDY    66  37  34 N6        30.06R
GORDON         FAIR      63  37  37 W3        30.04S
KIMBALL        CLOUDY    61  38  42 NW13G18   30.19S
SIDNEY         CLOUDY    63  38  39 NW14      30.15R
$$

NEZ057>060-069>072-079>082-230000-
SOUTHWEST NEBRASKA

CITY           SKY/WX    TMP DP  RH WIND       PRES   REMARKS
NORTH PLATTE   CLEAR     62  39  42 SW6       30.05R
IMPERIAL       CLOUDY    63  36  36 NW7       30.09R
LEXINGTON      CLEAR     56  35  43 S5        30.06S
MCCOOK         CLEAR     65  38  36 S5        30.06F
OGALLALA       CLEAR     62  37  40 NW3       30.08R
$$

NEZ005>010-023>029-035>040-094-230000-
NORTH CENTRAL NEBRASKA

CITY           SKY/WX    TMP DP  RH WIND       PRES   REMARKS
VALENTINE      CLOUDY    64  37  36 NW6       30.00R
AINSWORTH      CLOUDY    62  38  40 NW9       29.99S
BROKEN BOW     CLEAR     58  35  42 SW7       30.03R
O`NEILL        PTCLDY    51  32  49 S7        29.99R
ORD            CLEAR     54  31  41 S5        30.02S
THEDFORD       CLOUDY    66  38  35 NW8       30.04R
$$

NEZ041-046>049-061>064-073>077-083>087-230000-
SOUTH CENTRAL NEBRASKA

CITY           SKY/WX    TMP DP  RH WIND       PRES   REMARKS
GRAND ISLAND   CLEAR     50  26  39 SW14      30.07F
AURORA         CLEAR     49  22  34 S10       30.07F
HASTINGS       CLEAR     51  25  36 S9        30.07F
HEBRON         CLEAR     47  19  33 S6        30.13F
HOLDREGE       CLEAR     55  33  43 S7        30.07S
KEARNEY        CLEAR     53  31  42 S13       30.05
YORK           CLOUDY    46  21  36 S13       30.09F
$$

NEZ011>018-030>034-042>045-230000-
NORTHEAST NEBRASKA

CITY           SKY/WX    TMP DP  RH WIND       PRES   REMARKS
NORFOLK        CLOUDY    43  21  41 S8        30.03F
ALBION         PTCLDY    48  26  42 S7        30.05R
BLAIR          CLEAR     38  19  44 S13       30.10F WCI  31
COLUMBUS       CLEAR     42  20  41 S9        30.08F
FREMONT        CLEAR     39  18  41 S8        30.11F WCI  34
TEKAMAH        CLOUDY    38  16  40 S12       30.11F WCI  30
WAYNE          CLOUDY    41  15  34 S12       30.04F
$$

NEZ050>053-065>068-078-088>093-230000-
SOUTHEAST NEBRASKA

CITY           SKY/WX    TMP DP  RH WIND       PRES   REMARKS
LINCOLN        CLEAR     38  18  44 S10       30.14F WCI  31
OMAHA EPPLEY   PTCLDY    40  17  39 S13       30.14F WCI  32
BEATRICE       CLEAR     43  19  39 S9        30.15F
FALLS CITY     CLOUDY    40  16  37 S7        30.18F
NEBRASKA CITY  CLEAR     38  18  44 S7        30.16S WCI  33
PLATTSMOUTH    CLEAR     37  18  45 S7        30.14F WCI  32
$$

NEZ044-045-051>053-067-230000-
OMAHA AREA

CITY           SKY/WX    TMP DP  RH WIND       PRES   REMARKS
OMAHA EPPLEY   PTCLDY    40  17  39 S13       30.14F WCI  32
BLAIR          CLEAR     38  19  44 S13       30.10F WCI  31
FREMONT        CLEAR     39  18  41 S8        30.11F WCI  34
MILLARD        CLEAR     42  19  39 S6        30.14F
OFFUTT AFB     CLEAR     38  16  40 S5        30.14F WCI  35
PLATTSMOUTH    CLEAR     37  18  45 S7        30.14F WCI  32
WAHOO          FAIR      39  17  41 S10       30.11F WCI  32
$$




USA.gov is the U.S. government's official web portal to all federal, state and local government web resources and services.